User: anonymous   Login
Location: Caltech
(34.1382°N, 118.1253°W)
Time: 12:32:49
(UTC-07:00)
Language:

Cosmos 1975 - Orbit

View from above orbital plane
View from above orbital plane
View from above satellite
View from above satellite

Ground track
Ground track

The orbit data is extracted from the following two-line orbital elements,

1 19573U 88093A   16181.91522727 +.00000052 +00000-0 +16542-5 0  9995
2 19573 082.5206 326.1862 0015938 061.8757 298.4077 15.03743366485729
Epoch (UTC): 29 June 2016 21:57:55
Eccentricity: 0.0015938
inclination: 82.5206°
perigee height: 544 km
apogee height: 566 km
right ascension of ascending node: 326.1862°
argument of perigee: 61.8757°
revolutions per day: 15.03743366
mean anomaly at epoch: 298.4077°
orbit number at epoch: 48572

The dashed part of the orbit path shows where the satellite is in the earth's shadow,  

DLR